Regional Weather Roundup
Issued by NWS

Home | Current Version | Previous Version | Text Only | Print | Product List | Glossary On
Versions: 1 2 3 4 5 6 7 8 9 10 11 12 13 14 15 16 17 18 19 20 21 22 23 24 25 26 27 28 29 30 31 32 33 34 35 36 37 38 39 40 41 42 43 44 45 46 47 48 49 50
000
ASUS43 KIND 231709
RWRIN

WEATHER ROUNDUP FOR INDIANA
NATIONAL WEATHER SERVICE INDIANAPOLIS IN
1200 PM EST THU NOV 23 2017

NOTE: "FAIR" INDICATES FEW OR NO CLOUDS BELOW 12,000 FEET WITH NO
SIGNIFICANT WEATHER AND/OR OBSTRUCTIONS TO VISIBILITY.

* - STATION DOES NOT REPORT WEATHER SUCH AS PRECIPITATION OR FOG.

+ - STATION NOT QUALITY CONTROLLED BY THE NATIONAL WEATHER SERVICE.
    USE DATA WITH CAUTION...ESPECIALLY DEWPOINT AND RELATIVE
    HUMIDITY OBSERVATIONS.

INZ001>003-010>013-019-020-231800-
NORTHWEST INDIANA

CITY           SKY/WX    TMP DP  RH WIND       PRES   REMARKS
GARY /AIRPORT/ MOSUNNY   43  19  39 SW10      30.01F
KNOX *+        MOSUNNY   37  23  56 SW10      30.03F WCI  30
LA PORTE +     SUNNY     38  24  57 SW14      30.01F WCI  29
MICHIGAN CITY+ SUNNY     39  23  52 SW12G20   30.01F WCI  32
MONTICELLO +   SUNNY     38  22  54 SW10      30.05F WCI  31
RENSSELAER +   SUNNY     41  18  38 S14       30.03F
VALPARAISO     SUNNY     41  23  48 SW10      30.01F

$$

LMZ046-743>745-231800-
SOUTHERN LAKE MICHIGAN

STATION/POSITION TIME  TEMP    WIND        PRES    WAVE
                       AIR SEA DIR/SP/G            HT
                 (UTC) (F)     (DEG/KT/KT) (MB)    (FT)
BURNS HARBOR     1640   40     200/ 13/ 17 1016.6F
MICHIGAN CITY    1640   38     180/ 12/ 14   N/A

$$

INZ004-005-014>016-021>024-231800-
NORTH CENTRAL INDIANA

CITY           SKY/WX    TMP DP  RH WIND       PRES   REMARKS
GOSHEN         CLOUDY    37  22  54 S13       30.03F WCI  29
LOGANSPORT +   PTSUNNY   37  27  65 S10       30.07F WCI  30
PERU/GRISSOM   CLOUDY    37  26  64 S10       30.06F WCI  30
ROCHESTER +    PTSUNNY   37  27  65 SW9       30.05F WCI  31
SOUTH BEND     CLOUDY    36  23  59 SW9       30.02F WCI  29
WARSAW +       CLOUDY    34  25  69 SW7       30.05F WCI  28

$$

INZ006>009-017-018-025>027-231800-
NORTHEAST INDIANA

CITY           SKY/WX    TMP DP  RH WIND       PRES   REMARKS
AUBURN +       CLOUDY    36  23  60 SW8       30.06F WCI  29
FORT WAYNE     CLOUDY    36  27  69 SW13      30.07F WCI  27
HUNTINGTON +   CLOUDY    34  24  67 SW8       30.07F WCI  27
KENDALLVILLE + CLOUDY    34  25  69 SW12      30.03F WCI  26

$$

INZ028-029-035-036-043>045-051>053-231800-
WEST CENTRAL INDIANA

CITY           SKY/WX    TMP DP  RH WIND       PRES   REMARKS
CRAWFORDSVL +  SUNNY     36  25  65 SW9       30.08F WCI  29
GREENCASTLE +  CLOUDY    37  23  56 S3        30.09F
LAFAYETTE      SUNNY     39  24  55 SW9G17    30.07F WCI  33
TERRE HAUTE    CLOUDY    38  22  52 S9        30.10F WCI  31

$$

INZ030>032-037>040-046>048-054>057-064-065-231800-
CENTRAL INDIANA

CITY           SKY/WX    TMP DP  RH WIND       PRES   REMARKS
CP ATTERBURY + CLOUDY    41  25  52 SW7       30.11F
COLUMBUS       SUNNY     39  25  56 CALM      30.12F
FISHERS *+     CLOUDY    36  28  75 SW6       30.09F WCI  31
FRANKFORT +    CLOUDY    40  28  60 SW8       30.08F WCI  35
GREENWOOD *+   CLOUDY    42  27  54 SW6       30.10F
INDIANAPOLIS   CLOUDY    39  24  55 SW8       30.09F WCI  33
-EAGLE CREEK   CLOUDY    39  22  50 SW7       30.08F WCI  34
KOKOMO +       CLOUDY    37  25  61 SW10      30.08F WCI  30
MARION +       CLOUDY    35  27  73 SW9       30.09F HAZE    WCI  27
MT COMFORT *+  CLOUDY    36  30  80 S6        30.09F WCI  31
SHELBYVILLE    CLOUDY    40  25  55 SW8       30.09F WCI  34
ZIONSVILLE +   CLOUDY    35  23  61 SW8       30.08F WCI  29

$$

INZ033-034-041-042-049-050-058-059-231800-
EAST CENTRAL INDIANA

CITY           SKY/WX    TMP DP  RH WIND       PRES   REMARKS
MUNCIE         CLOUDY    39  24  55 SW9       30.08F WCI  33
RICHMOND +     CLOUDY    36  28  75 SW6       30.10S WCI  31

$$

INZ060-061-067>069-081>083-085>088-231800-
SOUTHWEST INDIANA

CITY           SKY/WX    TMP DP  RH WIND       PRES   REMARKS
EVANSVILLE     MOSUNNY   41  26  55 SW7       30.14F
HUNTINGBURG +  CLOUDY    41  27  57 SW7       30.13F
WASHINGTON +   CLOUDY    39  22  50 SW7       30.12F WCI  34

$$

INZ062-063-066-070>080-084-089>092-231800-
SOUTH CENTRAL AND SOUTHEAST INDIANA

CITY           SKY/WX    TMP DP  RH WIND       PRES   REMARKS
BEDFORD +      CLOUDY    41  25  52 SW3       30.10F
BLOOMINGTON    CLOUDY    39  23  52 S6        30.10F WCI  35
MADISON *+     SUNNY     41  27  56 S6        30.14F
NORTH VERNON + MOSUNNY   39  27  60 S8        30.12F WCI  34
SEYMOUR +      CLOUDY    41  28  60 S8        30.12F

$$





USA.gov is the U.S. government's official web portal to all federal, state and local government web resources and services.